Location: Angwan Shehu
(11.2514°N, 7.4613°E)
Time: 01:12:29
(UTC+00:00)

Tiros 1 - Pass Details

Date: 26 April 2021
Orbit: 630 x 664 km, 48.4° (Epoch: 06 May)

Event Time Altitude Azimuth Distance (km) Brightness Sun altitude
Rises 15:53:29 0° 283° (WNW) 2,907 11.9 25.3°
Reaches altitude 10° 15:57:53 10° 244° (WSW) 2,005 10.7 24.3°
Maximum altitude 15:58:47 11° 233° (SW) 1,974 10.4 24.1°
Drops below altitude 10° 15:59:40 10° 221° (SW) 2,008 10.2 23.8°
Sets 16:04:07 0° 182° (S) 2,925 10.4 22.8°
